SPIRALE A 1 33751U 09008C 24289.62175510 .00002822 00000-0 23422-2 0 9997 2 33751 1.9769 154.7891 5558819 83.7148 333.8240 4.60213928233949 SPIRALE B 1 33752U 09008D 24288.68296907 .00019189 00000-0 31744-2 0 9997 2 33752 2.0672 7.2200 6763332 8.3757 358.8064 2.96661221149676 SAPPHIRE 1 39088U 13009C 24289.78904083 .00000571 00000-0 21603-3 0 9993 2 39088 98.4111 113.4363 0010160 263.2556 96.7474 14.34844074609171